EW5684 Weather Reports


Display with metric or nautical units.
time (UTC)temp
F
wind
direction
speed
MPH
gust
MPH
rain 1hr
in
rain 24hr
in
rain mn
in
humidity
%
barometer
mb
20260507164105 72 149 4.0 5.0 0.00 0.00 0.00 31 1012.6
20260507163604 71 172 0.0 4.0 0.00 0.00 0.00 32 1012.6
20260507163105 71 166 2.0 4.0 0.00 0.00 0.00 32 1012.7
20260507162604 71 238 3.0 5.0 0.00 0.00 0.00 34 1012.6
20260507162104 71 200 2.0 5.0 0.00 0.00 0.00 34 1012.6
20260507161604 71 237 3.0 5.0 0.00 0.00 0.00 34 1012.6
20260507161105 72 190 2.0 4.0 0.00 0.00 0.00 32 1012.7
20260507160604 72 133 0.0 6.0 0.00 0.00 0.00 31 1012.6
20260507160105 72 165 2.0 6.0 0.00 0.00 0.00 32 1012.6
20260507155830 71 173 2.0 5.0 0.00 0.00 0.00 33 1012.6
20260507155104 71 193 2.0 5.0 0.00 0.00 0.00 32 1012.5
20260507154605 71 189 2.0 5.0 0.00 0.00 0.00 34 1012.6
20260507154332 71 165 4.0 6.0 0.00 0.00 0.00 34 1012.6
20260507153604 71 193 3.0 6.0 0.00 0.00 0.00 33 1012.6
20260507153332 73 159 2.0 4.0 0.00 0.00 0.00 34 1012.6
20260507152604 73 138 2.0 4.0 0.00 0.00 0.00 33 1012.6
20260507152104 72 169 2.0 4.0 0.00 0.00 0.00 33 1012.6
20260507151605 72 90 2.0 4.0 0.00 0.00 0.00 35 1012.5
20260507151104 71 135 2.0 5.0 0.00 0.00 0.00 36 1012.6
20260507150604 72 243 2.0 5.0 0.00 0.00 0.00 35 1012.6
20260507150104 72 59 3.0 5.0 0.00 0.00 0.00 35 1012.7
20260507145604 72 145 2.0 4.0 0.00 0.00 0.00 34 1012.7
20260507145105 72 161 2.0 5.0 0.00 0.00 0.00 36 1012.7
20260507144604 71 231 3.0 5.0 0.00 0.00 0.00 36 1012.7
20260507144033 71 158 2.0 5.0 0.00 0.00 0.00 35 1012.7
20260507143533 72 173 1.0 4.0 0.00 0.00 0.00 34 1012.8
20260507143031 73 71 2.0 4.0 0.00 0.00 0.00 35 1012.8
20260507142523 72 109 1.0 4.0 0.00 0.00 0.00 35 1012.8
20260507142023 71 93 1.0 4.0 0.00 0.00 0.00 36 1012.9
20260507141518 70 189 2.0 5.0 0.00 0.00 0.00 36 1013.0
20260507141016 71 142 3.0 5.0 0.00 0.00 0.00 36 1013.0
20260507140736 69 235 1.0 5.0 0.00 0.00 0.00 37 1013.1
20260507140014 69 230 4.0 9.0 0.00 0.00 0.00 37 1013.1
20260507135511 70 231 3.0 11.0 0.00 0.00 0.00 38 1013.1
20260507135012 70 210 5.0 11.0 0.00 0.00 0.00 36 1013.1
20260507134738 71 154 4.0 6.0 0.00 0.00 0.00 36 1013.2
20260507134012 70 272 2.0 6.0 0.00 0.00 0.00 38 1013.2
20260507133511 69 271 4.0 7.0 0.00 0.00 0.00 39 1013.2
20260507133014 69 233 5.0 7.0 0.00 0.00 0.00 39 1013.3
20260507132511 70 0 2.0 5.0 0.00 0.00 0.00 37 1013.3
20260507132012 70 0 3.0 6.0 0.00 0.00 0.00 38 1013.4
20260507131511 68 0 2.0 7.0 0.00 0.00 0.00 37 1013.4
20260507131011 69 0 4.0 9.0 0.00 0.00 0.00 39 1013.4
20260507130511 69 0 3.0 9.0 0.00 0.00 0.00 38 1013.5
20260507130231 69 0 3.0 6.0 0.00 0.00 0.00 39 1013.6
20260507125511 69 0 4.0 6.0 0.00 0.00 0.00 37 1013.5
20260507125011 70 0 4.0 6.0 0.00 0.00 0.00 40 1013.6
20260507124511 68 0 3.0 5.0 0.00 0.00 0.00 39 1013.6
20260507124010 69 0 3.0 5.0 0.00 0.00 0.00 35 1013.6
20260507123510 69 0 2.0 6.0 0.00 0.00 0.00 35 1013.7
20260507123010 69 0 2.0 9.0 0.00 0.00 0.00 38 1013.8
20260507122510 68 0 3.0 9.0 0.00 0.00 0.00 37 1013.8
20260507122010 68 0 4.0 9.0 0.00 0.00 0.00 37 1013.7
20260507121510 68 0 4.0 9.0 0.00 0.00 0.00 40 1013.7
20260507121010 68 0 3.0 6.0 0.00 0.00 0.00 38 1013.8
20260507120510 69 0 3.0 7.0 0.00 0.00 0.00 40 1013.8
20260507120010 69 0 2.0 7.0 0.00 0.00 0.00 40 1013.9
20260507115509 69 0 3.0 7.0 0.00 0.00 0.00 38 1013.8
20260507115009 67 0 4.0 10.0 0.00 0.00 0.00 42 1013.9
20260507114509 68 0 6.0 10.0 0.00 0.00 0.00 42 1014.0
20260507114009 68 0 2.0 7.0 0.00 0.00 0.00 41 1014.0
20260507113509 66 0 3.0 6.0 0.00 0.00 0.00 43 1014.1
20260507113233 66 0 6.0 6.0 0.00 0.00 0.00 42 1014.1
20260507112735 66 0 1.0 6.0 0.00 0.00 0.00 44 1014.2
20260507112008 65 0 2.0 6.0 0.00 0.00 0.00 45 1014.2
20260507111509 66 0 2.0 6.0 0.00 0.00 0.00 42 1014.3
20260507111008 66 0 4.0 6.0 0.00 0.00 0.00 44 1014.3
20260507110508 66 0 2.0 6.0 0.00 0.00 0.00 42 1014.4
20260507110009 66 0 2.0 6.0 0.00 0.00 0.00 42 1014.5
20260507105508 66 0 4.0 6.0 0.00 0.00 0.00 42 1014.4
20260507105008 66 0 2.0 6.0 0.00 0.00 0.00 44 1014.5
20260507104508 67 0 2.0 6.0 0.00 0.00 0.00 43 1014.5
20260507104008 66 0 4.0 6.0 0.00 0.00 0.00 45 1014.5
20260507103508 65 0 3.0 9.0 0.00 0.00 0.00 47 1014.5
20260507103007 65 0 5.0 9.0 0.00 0.00 0.00 47 1014.6
20260507102730 66 0 3.0 7.0 0.00 0.00 0.00 46 1014.7
20260507102459 65 0 4.0 7.0 0.00 0.00 0.00 47 1014.7
20260507101507 64 0 2.0 7.0 0.00 0.00 0.00 47 1014.7
20260507101007 64 0 5.0 7.0 0.00 0.00 0.00 45 1014.8
20260507100507 64 0 3.0 4.0 0.00 0.00 0.00 44 1014.8
20260507100007 64 0 1.0 4.0 0.00 0.00 0.00 44 1014.7
20260507095507 65 0 1.0 6.0 0.00 0.00 0.00 44 1014.7
20260507095007 65 0 4.0 6.0 0.00 0.00 0.00 44 1014.6
20260507094727 66 0 4.0 6.0 0.00 0.00 0.00 45 1014.6
20260507094007 65 0 3.0 4.0 0.00 0.00 0.00 46 1014.6
20260507093726 65 0 2.0 5.0 0.00 0.00 0.00 45 1014.6
20260507093229 65 0 2.0 7.0 0.00 0.00 0.00 45 1014.5
20260507092507 65 0 3.0 7.0 0.00 0.00 0.00 46 1014.5
20260507092223 66 0 2.0 3.0 0.00 0.00 0.00 45 1014.6
20260507091507 65 0 2.0 5.0 0.00 0.00 0.00 45 1014.6
20260507091005 65 0 2.0 5.0 0.00 0.00 0.00 45 1014.6
20260507090507 65 0 0.0 5.0 0.00 0.00 0.00 46 1014.6
20260507090006 64 0 3.0 7.0 0.00 0.00 0.00 46 1014.6
20260507085506 64 0 3.0 7.0 0.00 0.00 0.00 46 1014.5
20260507085005 65 0 1.0 7.0 0.00 0.00 0.00 46 1014.5
20260507084504 64 0 5.0 7.0 0.00 0.00 0.00 46 1014.5
20260507084004 63 0 4.0 5.0 0.00 0.00 0.00 47 1014.5
20260507083504 63 0 2.0 5.0 0.00 0.00 0.00 48 1014.5
20260507083005 62 0 2.0 5.0 0.00 0.00 0.00 47 1014.4
20260507082503 63 0 2.0 5.0 0.00 0.00 0.00 48 1014.4
20260507082004 64 0 2.0 4.0 0.00 0.00 0.00 47 1014.5
20260507081723 63 0 2.0 4.0 0.00 0.00 0.00 48 1014.5
20260507081003 62 0 2.0 4.0 0.00 0.00 0.00 49 1014.5
20260507080503 62 0 2.0 4.0 0.00 0.00 0.00 48 1014.5
20260507080005 62 0 1.0 5.0 0.00 0.00 0.00 50 1014.5
20260507075505 61 0 2.0 5.0 0.00 0.00 0.00 50 1014.4
20260507075004 61 0 1.0 6.0 0.00 0.00 0.00 50 1014.5
20260507074727 61 0 4.0 6.0 0.00 0.00 0.00 50 1014.5
20260507074004 60 0 2.0 6.0 0.00 0.00 0.00 51 1014.4
20260507073504 60 0 4.0 6.0 0.00 0.00 0.00 50 1014.5
20260507073005 60 0 3.0 4.0 0.00 0.00 0.00 50 1014.5
20260507072504 60 0 2.0 6.0 0.00 0.00 0.00 49 1014.4
20260507072003 60 0 2.0 6.0 0.00 0.00 0.00 50 1014.4
20260507071505 60 0 3.0 6.0 0.00 0.00 0.00 49 1014.4
20260507071004 60 0 3.0 6.0 0.00 0.00 0.00 49 1014.4
20260507070731 60 0 0.0 3.0 0.00 0.00 0.00 49 1014.3
20260507070009 60 0 1.0 3.0 0.00 0.00 0.00 48 1014.3
20260507065503 60 0 1.0 3.0 0.00 0.00 0.00 49 1014.2
20260507065004 60 0 1.0 2.0 0.00 0.00 0.00 49 1014.3
20260507064504 59 0 0.0 0.0 0.00 0.00 0.00 49 1014.2
20260507064002 58 0 0.0 0.0 0.00 0.00 0.00 50 1014.2
20260507063502 58 0 0.0 0.0 0.00 0.00 0.00 49 1014.1
20260507063004 57 0 0.0 0.0 0.00 0.00 0.00 49 1014.1
20260507062731 57 0 0.0 2.0 0.00 0.00 0.00 50 1014.1
20260507062222 56 0 0.0 4.0 0.00 0.00 0.00 50 1014.1
20260507061502 56 0 2.0 4.0 0.00 0.00 0.00 50 1014.0
20260507061002 55 0 0.0 5.0 0.00 0.00 0.00 50 1014.0
20260507060502 55 0 3.0 5.0 0.00 0.00 0.00 51 1014.0
20260507060002 55 0 2.0 5.0 0.00 0.00 0.00 51 1013.9
20260507055502 54 0 3.0 5.0 0.00 0.00 0.00 51 1013.8
20260507055002 54 0 2.0 3.0 0.00 0.00 0.00 52 1013.7
20260507054501 54 0 0.0 3.0 0.00 0.01 0.00 52 1013.8
20260507054001 53 0 1.0 3.0 0.00 0.01 0.00 53 1013.7
20260507053724 53 0 2.0 7.0 0.00 0.01 0.00 53 1013.7
20260507053002 53 0 5.0 7.0 0.00 0.01 0.00 54 1013.6
20260507052719 52 0 0.0 4.0 0.00 0.02 0.00 55 1013.6
20260507052001 52 0 1.0 4.0 0.00 0.06 0.00 55 1013.5
20260507051718 52 0 2.0 4.0 0.00 0.10 0.00 56 1013.5
20260507051001 52 0 2.0 3.0 0.00 0.15 0.00 56 1013.4
20260507050501 52 69 2.0 3.0 0.00 0.18 0.00 57 1013.4
20260507045959 52 80 0.0 0.0 0.00 0.19 0.00 57 1013.3
20260507045500 52 80 0.0 0.0 0.00 0.19 0.00 57 1013.3
20260507045232 52 80 0.0 0.0 0.00 0.20 0.00 57 1013.2
20260507044500 52 83 0.0 0.0 0.00 0.20 0.00 57 1013.2
20260507044000 52 80 0.0 0.0 0.00 0.20 0.00 57 1013.2
20260507043727 52 78 0.0 2.0 0.00 0.20 0.00 57 1013.1
20260507043219 51 62 1.0 2.0 0.00 0.21 0.00 57 1013.0
20260507042500 52 62 0.0 2.0 0.00 0.22 0.00 57 1013.0
20260507041959 52 66 0.0 0.0 0.00 0.23 0.00 57 1012.9
20260507041459 52 330 0.0 0.0 0.00 0.23 0.00 57 1012.8
20260507040959 52 331 0.0 0.0 0.00 0.24 0.00 57 1012.9
20260507040459 52 331 0.0 0.0 0.00 0.24 0.00 57 1012.9
20260507040000 52 331 0.0 1.0 0.00 0.24 0.00 57 1012.8
20260507035459 53 331 0.0 1.0 0.00 0.24 0.00 57 1012.8
20260507034959 53 331 0.0 2.0 0.00 0.25 0.00 57 1012.7
20260507034719 53 331 1.0 2.0 0.00 0.25 0.00 57 1012.6
20260507033959 53 0 0.0 3.0 0.00 0.26 0.00 57 1012.6
20260507033458 53 331 0.0 3.0 0.00 0.27 0.00 57 1012.7
20260507032957 53 0 1.0 3.0 0.00 0.27 0.00 57 1012.5
20260507032457 53 0 1.0 3.0 0.00 0.28 0.00 57 1012.5
20260507032220 53 0 2.0 3.0 0.00 0.28 0.00 57 1012.5
20260507031457 53 0 1.0 4.0 0.00 0.28 0.00 57 1012.6
20260507030956 53 0 1.0 4.0 0.00 0.28 0.00 57 1012.5
20260507030457 53 0 2.0 5.0 0.00 0.28 0.00 57 1012.5
20260507025956 53 0 2.0 6.0 0.00 0.28 0.00 57 1012.5
20260507025457 53 0 3.0 6.0 0.00 0.28 0.00 57 1012.4
20260507024955 53 0 4.0 5.0 0.00 0.28 0.00 57 1012.4
20260507024456 53 0 3.0 5.0 0.00 0.28 0.00 57 1012.5
20260507023956 53 0 2.0 7.0 0.00 0.28 0.00 57 1012.5
20260507023456 54 0 4.0 9.0 0.00 0.28 0.00 56 1012.4
20260507022955 54 0 7.0 9.0 0.00 0.28 0.00 56 1012.5
20260507022456 54 0 5.0 6.0 0.00 0.28 0.00 56 1012.4
20260507021955 54 0 3.0 10.0 0.00 0.28 0.00 56 1012.5
20260507021455 54 0 5.0 10.0 0.00 0.28 0.00 56 1012.5
20260507020955 54 0 6.0 9.0 0.00 0.28 0.00 56 1012.5
20260507020456 54 0 5.0 9.0 0.00 0.28 0.00 56 1012.5
20260507015955 54 0 6.0 9.0 0.00 0.28 0.00 56 1012.5
20260507015719 54 0 4.0 6.0 0.00 0.28 0.00 56 1012.5
20260507015223 54 0 4.0 6.0 0.00 0.28 0.00 56 1012.5
20260507014455 54 0 3.0 5.0 0.00 0.28 0.00 56 1012.4
20260507014219 54 0 3.0 5.0 0.00 0.28 0.00 56 1012.4
20260507013455 54 0 3.0 5.0 0.00 0.28 0.00 56 1012.4
20260507012955 53 0 3.0 5.0 0.00 0.28 0.00 56 1012.5
20260507012454 53 0 2.0 5.0 0.00 0.28 0.00 57 1012.6
20260507011954 53 0 1.0 4.0 0.00 0.28 0.00 57 1012.5
20260507011454 53 0 2.0 4.0 0.00 0.28 0.00 57 1012.5
20260507010953 53 0 2.0 2.0 0.00 0.28 0.00 57 1012.4
20260507010453 53 0 0.0 2.0 0.00 0.28 0.00 56 1012.3
20260507005954 54 0 0.0 0.0 0.00 0.28 0.00 56 1012.4
20260507005941 54 0 0.0 0.0 0.00 0.28 0.00 56 1012.4
20260507004953 54 0 0.0 2.0 0.00 0.28 0.00 56 1012.4
20260507004453 54 0 0.0 2.0 0.00 0.28 0.00 56 1012.4
20260507003953 54 0 1.0 2.0 0.00 0.28 0.00 56 1012.3
20260507003453 55 0 0.0 0.0 0.00 0.28 0.00 55 1012.2
20260507002954 55 0 0.0 1.0 0.00 0.29 0.00 55 1012.2
20260507002716 55 0 0.0 1.0 0.00 0.29 0.00 55 1012.1
20260507002211 55 0 0.0 0.0 0.00 0.29 0.00 55 1012.1
20260507001453 55 0 0.0 0.0 0.00 0.30 0.00 55 1012.0
20260507001211 55 0 0.0 0.0 0.00 0.30 0.00 54 1012.0
20260507000453 55 0 0.0 0.0 0.00 0.30 0.00 54 1012.0
20260506235952 56 0 0.0 0.0 0.00 0.30 0.00 54 1011.9
20260506235453 56 0 0.0 3.0 0.00 0.30 0.00 54 1011.9
20260506234952 56 0 0.0 3.0 0.00 0.30 0.00 54 1011.9
20260506234452 56 0 2.0 3.0 0.00 0.30 0.00 54 1011.9
20260506233952 56 0 1.0 2.0 0.00 0.30 0.00 53 1011.9
20260506233452 56 0 0.0 0.0 0.00 0.30 0.00 53 1011.9
20260506232952 56 0 0.0 0.0 0.00 0.30 0.00 53 1011.9
20260506232452 56 0 0.0 2.0 0.00 0.30 0.00 53 1011.8
20260506231952 56 0 0.0 3.0 0.00 0.30 0.00 53 1011.8
20260506231717 57 0 2.0 3.0 0.00 0.30 0.00 53 1011.8
20260506230951 57 0 1.0 3.0 0.00 0.30 0.00 53 1011.8
20260506230451 57 0 2.0 3.0 0.00 0.30 0.00 53 1011.8
20260506225951 57 0 1.0 7.0 0.00 0.30 0.00 53 1011.8
20260506225450 57 0 4.0 7.0 0.00 0.30 0.00 53 1011.8
20260506224951 57 0 1.0 4.0 0.00 0.30 0.00 53 1011.8
20260506224451 57 0 3.0 4.0 0.00 0.30 0.00 53 1011.8
20260506223951 57 0 1.0 5.0 0.00 0.30 0.00 53 1011.8
20260506223450 57 0 4.0 6.0 0.00 0.30 0.00 52 1011.6
20260506222951 57 0 5.0 6.0 0.00 0.30 0.00 52 1011.6
20260506222450 57 0 3.0 6.0 0.00 0.30 0.00 52 1011.5
20260506221950 57 0 4.0 7.0 0.00 0.30 0.00 52 1011.6
20260506221451 58 0 4.0 9.0 0.00 0.30 0.00 52 1011.6
20260506220950 57 0 5.0 9.0 0.00 0.30 0.00 52 1011.5
20260506220450 58 0 5.0 9.0 0.00 0.30 0.00 52 1011.5
20260506215950 58 0 5.0 9.0 0.00 0.30 0.30 52 1011.5
20260506215929 58 0 4.0 9.0 0.00 0.30 0.30 52 1011.3
20260506214950 58 0 6.0 9.0 0.00 0.30 0.30 52 1011.5
20260506214449 58 0 4.0 7.0 0.00 0.30 0.30 53 1011.3
20260506213949 58 0 4.0 10.0 0.00 0.30 0.30 53 1011.3
20260506213449 58 0 6.0 10.0 0.00 0.30 0.30 53 1011.3
20260506212949 58 0 5.0 9.0 0.00 0.30 0.30 53 1011.3
20260506212451 58 0 4.0 9.0 0.00 0.30 0.30 53 1011.3
20260506212211 58 0 4.0 7.0 0.00 0.30 0.30 53 1011.5
20260506211451 58 0 4.0 7.0 0.00 0.30 0.30 53 1011.3
20260506210950 58 0 3.0 6.0 0.00 0.30 0.30 53 1011.3
20260506210450 58 0 4.0 6.0 0.00 0.30 0.30 53 1011.3
20260506210209 58 0 3.0 7.0 0.00 0.30 0.30 53 1011.3
20260506205459 58 0 4.0 7.0 0.00 0.30 0.30 53 1011.2
20260506204950 58 0 5.0 10.0 0.00 0.30 0.30 53 1011.1
20260506204450 58 0 5.0 10.0 0.00 0.30 0.30 53 1011.2
20260506203959 58 0 5.0 9.0 0.00 0.30 0.30 53 1011.1
20260506203449 58 0 6.0 9.0 0.00 0.30 0.30 53 1011.0
20260506202949 58 0 5.0 10.0 0.00 0.30 0.30 53 1010.9
20260506202449 58 0 7.0 10.0 0.00 0.30 0.30 53 1010.9
20260506201949 58 0 5.0 13.0 0.00 0.30 0.30 54 1010.8
20260506201450 59 0 9.0 13.0 0.00 0.30 0.30 54 1010.7
20260506200949 59 0 6.0 11.0 0.00 0.30 0.30 54 1010.6
20260506200451 59 0 6.0 12.0 0.00 0.30 0.30 54 1010.6
20260506200233 59 0 5.0 12.0 0.00 0.30 0.30 54 1010.4
20260506195448 59 0 6.0 11.0 0.00 0.30 0.30 54 1010.3
20260506194959 59 0 6.0 10.0 0.00 0.30 0.30 55 1010.2
20260506194458 59 0 3.0 7.0 0.00 0.30 0.30 55 1010.1
20260506194212 59 0 5.0 11.0 0.00 0.30 0.30 55 1010.0
20260506193448 59 0 7.0 11.0 0.00 0.30 0.30 55 1009.8
20260506192948 59 0 7.0 14.0 0.00 0.30 0.30 55 1009.6
20260506192448 59 0 7.0 14.0 0.00 0.30 0.30 55 1009.5
20260506191959 59 0 7.0 15.0 0.00 0.30 0.30 55 1009.5
20260506191448 60 0 7.0 15.0 0.00 0.30 0.30 55 1009.5
20260506190947 60 0 8.0 14.0 0.00 0.30 0.30 55 1009.3
20260506190447 60 0 9.0 14.0 0.00 0.30 0.30 55 1009.2
20260506185947 60 0 9.0 12.0 0.00 0.30 0.30 55 1009.1
20260506185448 61 0 9.0 12.0 0.00 0.30 0.30 55 1009.1
20260506184947 61 0 8.0 12.0 0.00 0.30 0.30 55 1009.0
20260506184447 61 0 7.0 11.0 0.00 0.30 0.30 54 1008.8
20260506183947 62 0 6.0 10.0 0.00 0.30 0.30 54 1008.7
20260506183706 62 0 5.0 11.0 0.00 0.30 0.30 53 1008.6
20260506182946 62 0 4.0 11.0 0.00 0.30 0.30 53 1008.4
20260506182447 63 0 7.0 11.0 0.00 0.30 0.30 52 1008.3
20260506181947 63 0 5.0 12.0 0.00 0.30 0.30 51 1008.2
20260506181446 63 0 9.0 12.0 0.00 0.30 0.30 50 1008.0
20260506180946 64 0 6.0 11.0 0.00 0.30 0.30 50 1007.9
20260506180446 64 0 8.0 13.0 0.00 0.30 0.30 49 1007.9
20260506175946 64 0 6.0 13.0 0.00 0.30 0.30 49 1007.8
20260506175446 64 0 8.0 13.0 0.00 0.30 0.30 48 1007.8
20260506174945 64 0 9.0 13.0 0.00 0.30 0.30 48 1007.7
20260506174446 65 0 6.0 11.0 0.00 0.30 0.30 47 1007.6
20260506173946 65 0 4.0 6.0 0.00 0.30 0.30 45 1007.6
20260506173446 65 0 4.0 6.0 0.00 0.30 0.30 44 1007.4
20260506172945 65 0 4.0 10.0 0.00 0.30 0.30 43 1007.3
20260506172445 65 0 4.0 10.0 0.00 0.30 0.30 42 1007.2
20260506171945 65 0 6.0 10.0 0.00 0.30 0.30 41 1007.2
20260506171445 66 0 6.0 10.0 0.00 0.30 0.30 41 1007.0
20260506171208 66 0 6.0 9.0 0.00 0.30 0.30 43 1006.9
20260506170444 66 0 4.0 9.0 0.00 0.30 0.30 42 1006.8
20260506165945 66 0 6.0 9.0 0.00 0.30 0.30 42 1006.8
20260506165704 66 0 5.0 9.0 0.00 0.30 0.30 42 1006.8
20260506164944 66 0 5.0 10.0 0.00 0.30 0.30 42 1006.8
20260506164443 66 0 6.0 10.0 0.00 0.30 0.30 43 1006.9